[[{"header":{"parameterUnit":"m.s-1","parameterCategory":1,"la1":30.2991,"la2":30.254,"lo1":-89.0895,"lo2":-89.0444,"dy":0.0017,"dx":0.0017,"nx":28,"ny":28,"refTime":"2025-04-02T09:00:00:Z","depth":0,"parameterNumber":2,"parameterNumberName":"U-component_of_WINDS"},"data":[0,0,0,0,0,0,0,0,0,0,0,0,0,0,0,0,0,0,0,0,0,0,0,0,0,0,0,0,0,0,0,0,0,0,0,0,0,0,0,0,0,0,0,0,0,0,0,0,0,0,0,0,0,0,0,0,0,0,-3.6763,-3.6764,0,-3.6903,-3.6905,-3.6906,-3.6941,-3.694,-3.6939,-3.6938,-3.7082,-3.7086,-3.7091,0,0,0,0,0,0,0,0,0,0,0,0,0,-3.6525,-3.6529,-3.6763,-3.6764,-3.6766,-3.6903,-3.6905,-3.6907,-3.6941,-3.694,-3.6938,-3.6937,-3.708,-3.7086,-3.7092,0,0,0,0,0,0,0,0,0,0,0,0,0,-3.6643,-3.653,-3.6762,-3.68,-3.6804,-3.6903,-3.6905,-3.6907,-3.6941,-3.694,-3.6938,-3.6937,-3.7079,-3.7085,-3.7092,-3.7164,0,0,-3.7114,-3.7117,0,0,0,0,0,0,0,0,-3.6636,-3.6652,-3.6792,-3.6797,-3.6803,-3.6903,-3.6874,-3.6993,-3.6941,-3.6889,-3.6938,-3.6936,-3.7023,-3.7035,-3.7064,-3.717,-3.7177,-3.7114,-3.7119,-3.7122,-3.7124,0,0,0,0,0,0,0,-3.6628,-3.6646,-3.6818,-3.6794,-3.6801,-3.681,-3.6825,-3.6897,-3.6962,-3.6894,-3.6896,-3.6912,-3.7026,-3.7057,-3.7068,-3.7179,-3.7114,-3.7121,-3.7125,-3.7128,-3.7351,-3.7353,0,0,0,0,0,0,-3.6613,-3.6639,-3.6814,-3.6822,-3.6714,-3.6815,-3.6832,-3.6872,-3.6962,-3.6974,-3.6914,-3.6914,-3.7046,-3.706,-3.7073,-3.7163,-3.7122,-3.7128,-3.7132,-3.7349,-3.7351,-3.7353,0,0,0,0,0,0,-3.6608,-3.6628,-3.6808,-3.6731,-3.6755,-3.6821,-3.6865,-3.6876,-3.6907,-3.6977,-3.6989,-3.6933,-3.7046,-3.7063,-3.7141,-3.7168,-3.7132,-3.7138,-3.7347,-3.735,-3.7352,-3.7342,0,0,0,0,0,0,-3.6601,-3.6626,-3.6654,-3.6732,-3.6759,-3.6873,-3.6867,-3.6879,-3.6919,-3.6921,-3.6999,-3.701,-3.7046,-3.713,-3.7148,-3.7177,-3.7143,-3.7345,-3.7348,-3.7351,-3.734,-3.7344,-3.7347,0,0,0,0,0,-3.6592,-3.6645,-3.6655,-3.6676,-3.6795,-3.6875,-3.689,-3.693,-3.6921,-3.6949,-3.6994,-3.7008,-3.7163,-3.7138,-3.7158,-3.719,-3.7344,-3.7347,-3.7351,-3.7338,-3.7343,-3.7347,0,0,0,0,0,0,-3.6569,-3.6656,-3.6668,-3.6747,-3.6803,-3.688,-3.6917,-3.6933,-3.6993,-3.6992,-3.7039,-3.7056,-3.7131,-3.7168,-3.7139,-3.7264,-3.7253,-3.7261,-3.7236,-3.7241,-3.7244,-3.7233,-3.7149,0,0,0,0,0,-3.6573,-3.663,-3.6704,-3.6767,-3.6794,-3.6851,-3.6887,-3.6913,-3.6973,-3.6997,-3.7047,-3.7105,-3.7167,-3.7206,-3.7267,-3.7346,-3.7364,-3.7378,-3.7381,-3.7384,-3.739,-3.7435,-3.7442,-3.7366,-3.7366,-3.7366,0,0,-3.6581,-3.6636,-3.667,-3.6763,-3.681,-3.6868,-3.687,-3.6932,-3.6976,-3.7006,-3.7082,-3.7122,-3.7189,-3.7268,-3.7305,-3.7302,-3.7415,-3.7389,-3.739,-3.7395,-3.7439,-3.7447,-3.7453,-3.7368,-3.7368,-3.7367,0,0,-3.6627,-3.6675,-3.6733,-3.6779,-3.6849,-3.6887,-3.6901,-3.6976,-3.7003,-3.708,-3.7104,-3.7157,-3.7263,-3.731,-3.7348,-3.7413,-3.7427,-3.7431,-3.7449,-3.7492,-3.7498,-3.7503,-3.7526,-3.7534,-3.7437,-3.7437,-3.7437,0,-3.6629,-3.6718,-3.676,-3.6821,-3.6862,-3.6892,-3.6951,-3.6994,-3.7081,-3.7108,-3.7103,-3.7236,-3.7284,-3.7374,-3.739,-3.742,-3.7437,-3.7422,-3.7494,-3.75,-3.7505,-3.7528,-3.7536,-3.7437,-3.7437,-3.7437,-3.7437,0,-3.6717,-3.6779,-3.6817,-3.69,-3.6945,-3.7005,-3.7056,-3.7097,-3.7119,-3.7157,-3.7236,-3.7295,-3.7368,-3.7391,-3.7414,-3.7485,-3.7481,-3.7484,-3.7474,-3.7512,-3.7534,-3.7543,-3.7437,-3.7437,-3.7437,-3.7437,0,0,-3.6751,-3.6857,-3.687,-3.6908,-3.6988,-3.7037,-3.7098,-3.717,-3.7204,-3.7263,-3.7315,-3.7404,-3.7408,-3.7451,-3.7479,-3.7518,-3.7565,-3.7516,-3.7519,-3.7523,-3.7647,-3.7643,-3.7653,-3.7576,-3.7578,-3.7579,-3.7641,0,-3.6806,-3.6916,-3.6956,-3.7047,-3.7105,-3.7135,-3.7188,-3.7243,-3.7281,-3.7336,-3.7378,-3.744,-3.744,-3.7466,-3.7505,-3.7551,-3.7591,-3.7547,-3.7625,-3.7627,-3.7606,-3.7664,-3.766,-3.7716,-3.765,-3.7652,-3.7653,0,-3.6885,-3.6945,-3.7041,-3.7115,-3.714,-3.7188,-3.7257,-3.7309,-3.7372,-3.7397,-3.7445,-3.7471,-3.7537,-3.7524,-3.7615,-3.7585,-3.762,-3.7647,-3.765,-3.7658,-3.7641,-3.7673,-3.7735,-3.7743,-3.7667,-3.7666,-3.7665,0,-3.6899,-3.7004,-3.7075,-3.7107,-3.7195,-3.7227,-3.7265,-3.7328,-3.7368,-3.7429,-3.7456,-3.7523,-3.756,-3.7612,-3.7656,-3.7642,-3.7744,-3.7734,-3.7766,-3.7765,-3.7785,-3.7783,-3.7852,-3.7808,-3.7808,-3.7808,-3.7808,0,-3.6956,-3.7014,-3.7083,-3.7126,-3.7192,-3.7238,-3.7302,-3.7342,-3.7397,-3.745,-3.7481,-3.7529,-3.7584,-3.764,-3.7675,-3.7745,-3.7762,-3.7784,-3.7792,-3.7781,-3.7778,-3.7803,-3.78,-3.781,-3.781,-3.781,-3.7809,0,-3.6983,-3.7031,-3.7111,-3.7187,-3.7208,-3.7253,-3.7319,-3.7363,-3.7402,-3.7468,-3.7486,-3.7548,-3.7615,-3.7665,-3.7752,-3.7775,-3.7851,-3.7859,-3.7829,-3.7833,-3.7862,-3.7858,-3.795,-3.7964,-3.7911,-3.7911,-3.7912,0,-3.7015,-3.706,-3.7142,-3.7179,-3.7217,-3.7276,-3.7318,-3.7365,-3.7408,-3.7484,-3.7519,-3.7588,-3.7646,-3.7753,-3.7806,-3.7873,-3.7883,-3.7911,-3.7893,-3.788,-3.7883,-3.7879,-3.7884,-3.7912,-3.7913,-3.7913,-3.7913,0,-3.7068,-3.709,-3.7149,-3.7216,-3.7265,-3.732,-3.7376,-3.7405,-3.7462,-3.7508,-3.7578,-3.7623,-3.7712,-3.7781,-3.7853,-3.7893,-3.7913,-3.7919,-3.7929,-3.7918,-3.7898,-3.7908,-3.7835,-3.7916,-3.7916,-3.7916,-3.7915,-3.7915,-3.7099,-3.714,-3.7204,-3.7268,-3.7315,-3.7367,-3.7412,-3.7457,-3.7516,-3.7591,-3.7616,-3.7688,-3.7751,-3.7851,-3.7891,-3.7948,-3.7948,-3.7963,-3.7967,-3.797,-3.7969,-3.7889,-3.7962,-3.7962,-3.7962,-3.7962,-3.7962,0,-3.7153,-3.7195,-3.7254,-3.7331,-3.7382,-3.7397,-3.746,-3.7501,-3.7564,-3.7621,-3.7678,-3.7757,-3.7824,-3.7883,-3.7953,-3.7987,-3.7998,-3.8004,-3.8001,-3.801,-3.7966,-3.795,-3.7994,-3.7994,-3.7994,-3.7994,-3.7994,-3.7994,-3.7187,-3.7258,-3.7287,-3.7382,-3.7425,-3.7495,-3.7529,-3.7577,-3.7623,-3.7711,-3.7766,-3.7804,-3.7862,-3.7937,-3.7999,-3.8015,-3.8038,-3.8042,-3.8059,-3.8017,-3.8013,-3.801,-3.7994,-3.8047,-3.8047,-3.8099,-3.8099,-3.8099]},{"header":{"parameterUnit":"m.s-1","parameterCategory":1,"la1":30.2991,"la2":30.254,"lo1":-89.0895,"lo2":-89.0444,"dy":0.0017,"dx":0.0017,"nx":28,"ny":28,"refTime":"2025-04-02T09:00:00:Z","depth":0,"parameterNumber":3,"parameterNumberName":"V-component_of_WINDS"},"data":[0,0,0,0,0,0,0,0,0,0,0,0,0,0,0,0,0,0,0,0,0,0,0,0,0,0,0,0,0,0,0,0,0,0,0,0,0,0,0,0,0,0,0,0,0,0,0,0,0,0,0,0,0,0,0,0,0,0,6.5798,6.58,0,6.5968,6.597,6.5972,6.5974,6.5972,6.597,6.5968,6.6142,6.6148,6.6155,0,0,0,0,0,0,0,0,0,0,0,0,0,6.5479,6.5485,6.5798,6.58,6.5802,6.5968,6.597,6.5972,6.5975,6.5972,6.597,6.5967,6.614,6.6148,6.6156,0,0,0,0,0,0,0,0,0,0,0,0,0,6.563,6.5487,6.5798,6.5824,6.5828,6.5967,6.597,6.5973,6.5975,6.5972,6.5969,6.5966,6.6137,6.6147,6.6157,6.6282,0,0,6.6187,6.6191,0,0,0,0,0,0,0,0,6.5621,6.5642,6.5818,6.5822,6.5827,6.5947,6.5921,6.6077,6.5976,6.5919,6.5968,6.5964,6.608,6.6094,6.6133,6.629,6.6298,6.6188,6.6194,6.6198,6.6201,0,0,0,0,0,0,0,6.5611,6.5634,6.5865,6.582,6.5826,6.5828,6.5845,6.5951,6.6015,6.5924,6.5925,6.5945,6.6082,6.6123,6.6137,6.63,6.6188,6.6197,6.6203,6.6207,6.6573,6.6577,0,0,0,0,0,0,6.5595,6.5626,6.586,6.587,6.5714,6.5836,6.5856,6.5911,6.6014,6.6027,6.5947,6.5944,6.6108,6.6126,6.6143,6.63,6.6198,6.6207,6.6213,6.657,6.6574,6.6578,0,0,0,0,0,0,6.5588,6.5616,6.5853,6.5748,6.5779,6.5845,6.5907,6.5917,6.5958,6.6032,6.6043,6.5978,6.6106,6.6129,6.6249,6.6306,6.6212,6.6221,6.6565,6.6571,6.6576,6.6612,0,0,0,0,0,0,6.5579,6.5613,6.5661,6.5749,6.5784,6.5955,6.5911,6.5922,6.5976,6.5973,6.6064,6.6076,6.6105,6.6234,6.6258,6.6318,6.6229,6.656,6.6568,6.6575,6.6606,6.6618,6.6629,0,0,0,0,0,6.5568,6.5663,6.5663,6.5692,6.5845,6.5958,6.5978,6.601,6.598,6.6029,6.6077,6.6073,6.6295,6.6246,6.6274,6.6337,6.6557,6.6566,6.6574,6.6601,6.6616,6.6628,0,0,0,0,0,0,6.5579,6.5675,6.5676,6.5803,6.5873,6.5958,6.6021,6.6025,6.6104,6.6098,6.6135,6.6156,6.6275,6.6318,6.6261,6.6466,6.6423,6.6437,6.6434,6.6448,6.6459,6.6447,6.6237,0,0,0,0,0,6.5597,6.568,6.5759,6.5864,6.5899,6.5954,6.6005,6.6024,6.6097,6.6126,6.6182,6.6254,6.6341,6.6397,6.648,6.6612,6.6634,6.667,6.6681,6.669,6.6702,6.6779,6.6797,6.6606,6.6606,6.6606,0,0,6.5633,6.5696,6.5746,6.5868,6.5924,6.6011,6.5979,6.6071,6.6137,6.614,6.6257,6.6301,6.6384,6.6511,6.657,6.655,6.676,6.6701,6.6707,6.6715,6.679,6.6808,6.6824,6.6612,6.6611,6.661,0,0,6.5745,6.58,6.5895,6.5952,6.6038,6.6074,6.6097,6.6183,6.6213,6.6331,6.6337,6.6415,6.6562,6.6622,6.6672,6.681,6.681,6.6836,6.6895,6.697,6.6985,6.6998,6.705,6.7068,6.6848,6.6848,6.6848,0,6.578,6.591,6.5943,6.6037,6.6092,6.61,6.6198,6.6252,6.636,6.6398,6.6375,6.6562,6.6618,6.6761,6.6795,6.6834,6.6863,6.6826,6.698,6.6994,6.7007,6.7057,6.7076,6.6851,6.685,6.685,6.685,0,6.5951,6.6041,6.6108,6.6214,6.6276,6.6371,6.6419,6.6478,6.6493,6.6533,6.6654,6.6722,6.6821,6.6856,6.687,6.7003,6.6988,6.6972,6.6929,6.7027,6.7075,6.7094,6.6855,6.6854,6.6853,6.6852,0,0,6.6073,6.6198,6.6222,6.6272,6.6368,6.644,6.6536,6.6634,6.6685,6.676,6.6844,6.697,6.6956,6.7013,6.7034,6.7099,6.7208,6.7075,6.7078,6.71,6.7362,6.7375,6.7396,6.7208,6.7212,6.7215,6.7356,0,6.6198,6.6369,6.6403,6.6553,6.6639,6.665,6.6734,6.6804,6.6844,6.6923,6.6968,6.7058,6.7032,6.7066,6.7131,6.7181,6.7261,6.7171,6.7289,6.7292,6.7269,6.7421,6.7435,6.7564,6.7374,6.7377,6.738,0,6.6365,6.6446,6.6605,6.6693,6.673,6.6806,6.69,6.6975,6.7054,6.7079,6.7144,6.7159,6.7262,6.7214,6.7358,6.7296,6.7346,6.7378,6.7384,6.7398,6.7343,6.7441,6.7605,6.7626,6.7409,6.7407,6.7404,0,6.6442,6.6591,6.6706,6.6747,6.6852,6.6906,6.6952,6.7029,6.7086,6.7168,6.7207,6.7299,6.735,6.7422,6.7463,6.7424,6.7605,6.756,6.763,6.763,6.7669,6.7666,6.7846,6.7698,6.7697,6.7697,6.7697,0,6.6579,6.6676,6.6742,6.6813,6.6924,6.6962,6.7071,6.7116,6.7185,6.7267,6.7281,6.7357,6.7405,6.7488,6.7521,6.7637,6.7659,6.7684,6.7691,6.7684,6.7681,6.7718,6.7711,6.7702,6.7701,6.77,6.7699,0,6.6684,6.6732,6.6859,6.6948,6.6973,6.7051,6.7129,6.7199,6.724,6.7343,6.7369,6.7434,6.7534,6.7581,6.7704,6.7726,6.7858,6.7859,6.7832,6.7835,6.7904,6.7898,6.8116,6.8148,6.7976,6.7978,6.7979,0,6.6768,6.6844,6.6943,6.6998,6.7046,6.7135,6.7195,6.7236,6.7298,6.7396,6.7456,6.7556,6.7638,6.7797,6.7856,6.7951,6.7955,6.8025,6.797,6.7961,6.796,6.7956,6.7965,6.8036,6.8037,6.8039,6.804,0,6.6915,6.6936,6.702,6.7115,6.7186,6.7262,6.7337,6.7382,6.7436,6.7504,6.7607,6.7671,6.7798,6.7898,6.7998,6.8047,6.8054,6.8057,6.8079,6.8073,6.8055,6.8069,6.7862,6.8052,6.8051,6.805,6.8049,6.8049,6.7014,6.7083,6.7165,6.726,6.7321,6.7391,6.7463,6.7514,6.76,6.7707,6.7726,6.7836,6.7917,6.8051,6.8104,6.8191,6.8175,6.8206,6.8215,6.8222,6.8228,6.804,6.8209,6.8209,6.8209,6.8208,6.8208,0,6.7164,6.7217,6.7304,6.741,6.7485,6.7485,6.7569,6.7632,6.7729,6.7803,6.7885,6.8005,6.8103,6.817,6.827,6.8328,6.8334,6.8353,6.835,6.8362,6.8234,6.8207,6.8347,6.8347,6.8347,6.8347,6.8347,6.8347,6.7251,6.7369,6.74,6.7549,6.7602,6.771,6.7758,6.7824,6.7884,6.8017,6.8099,6.8143,6.8216,6.8322,6.8413,6.843,6.8467,6.8488,6.8505,6.8385,6.837,6.8357,6.8331,6.8495,6.8495,6.8626,6.8627,6.8628]}]]